Regional Weather Roundup
Issued by NWS

Home | Current Version | Previous Version | Text Only | Print | Product List | Glossary On
Versions: 1 2 3 4 5 6 7 8 9 10 11 12 13 14 15 16 17 18 19 20 21 22 23 24 25 26 27 28 29 30 31 32 33 34 35 36 37 38 39 40 41 42 43 44 45 46 47 48 49 50
000
ASUS45 KBOI 280510
RWRID
WEATHER ROUNDUP FOR IDAHO
NATIONAL WEATHER SERVICE BOISE ID
1000 PM MST FRI FEB 27 2015

NOTE: "FAIR" INDICATES FEW OR NO CLOUDS BELOW 12000 FEET
WITH NO SIGNIFICANT WEATHER AND/OR OBSTRUCTIONS TO VISIBILITY

IDZ012-014-280600-
SOUTHWEST IDAHO


CITY           SKY/WX    TMP DP  RH WIND       PRES   REMARKS
BOISE          CLOUDY    41  32  70 SE12      29.65R
CALDWELL       CLOUDY    43  30  61 CALM      29.68R
MOUNTAIN HOME  CLOUDY    43  26  52 E23       29.64F
$$

IDZ016-017-280600-
SOUTHCENTRAL IDAHO


CITY           SKY/WX    TMP DP  RH WIND       PRES   REMARKS
BURLEY         MOCLDY    33  25  72 NE12      29.68S WCI  24
JEROME         CLOUDY    36  24  62 NE22      29.68S WCI  25
TWIN FALLS     CLOUDY    36  25  64 E8        29.68R WCI  30
$$

IDZ019>023-280600-
SOUTHEAST IDAHO


CITY           SKY/WX    TMP DP  RH WIND       PRES   REMARKS
IDAHO FALLS    PTCLDY    23  20  88 N6        29.76R WCI  16
POCATELLO      CLEAR     24  21  88 NE3       29.74R
REXBURG        PTCLDY    22  19  89 N8        29.77R WCI  12
$$

IDZ006-010-011-018-031-032-280600-
CENTRAL IDAHO MOUNTAINS


CITY           SKY/WX    TMP DP  RH WIND       PRES   REMARKS
MCCALL         CLOUDY    29  24  82 CALM      29.64R
HAILEY         MOCLDY    28  25  86 CALM      29.71R
STANLEY          N/A     23  14  68 CALM      29.66R
SALMON         CLOUDY   N/A N/A N/A E18       29.75R
CHALLIS        CLOUDY    32  21  64 N10       29.70R WCI  24
$$

IDZ002-004-006-007-026-280600-
NORTHERN IDAHO


CITY           SKY/WX    TMP DP  RH WIND       PRES   REMARKS
LEWISTON       PTCLDY    44  23  43 NE9       29.76R
LOWELL           N/A     39  31  72 VRB5      29.78R
COEUR D`ALENE  PTCLDY    34  16  47 N16       29.88R WCI  23
MULLAN PASS    CLOUDY    16   9  74 VRB6      29.76R WCI   7
$$



USA.gov is the U.S. government's official web portal to all federal, state and local government web resources and services.